User: anonymous   Login
Location: Innerarity Island Observatory
(30.3139°N, 87.4867°W)
Time: 11:45:01
(UTC-06:00)
Language:

OPAL - Orbit

View from above orbital plane
View from above orbital plane
View from above satellite
View from above satellite

Ground track
Ground track

The orbit data is extracted from the following two-line orbital elements,

1 26063U 00004C   16040.71465420  .00000072  00000-0  44450-4 0  9991
2 26063 100.1914 307.8279 0035813 259.9902  99.7236 14.36596759840527
Epoch (UTC): 09 February 2016 17:09:06
Eccentricity: 0.0035813
inclination: 100.1914°
perigee height: 744 km
apogee height: 795 km
right ascension of ascending node: 307.8279°
argument of perigee: 259.9902°
revolutions per day: 14.36596759
mean anomaly at epoch: 99.7236°
orbit number at epoch: 84052

The dashed part of the orbit path shows where the satellite is in the earth's shadow,  

DLR